This is the latest recevied weather packets stored in our database for station/object WB0OCV. If no packets are shown the sender has not sent any weather packets the latest 10 day(s).
| Time | Temp. | Humidity | Pressure | Rain* | Wind** | Luminosity | Snow |
|---|---|---|---|---|---|---|---|
| 1777572589 | 12.22° C | 88% | 1008.1 hPa | 0 mm | - | 117 W/m² | - |
| 1777572284 | 12.78° C | 87% | 1008.4 hPa | 0 mm | - | 107 W/m² | - |
| 1777571979 | 12.78° C | 86% | 1008.4 hPa | 0 mm | - | 116 W/m² | - |
| 1777571679 | 12.78° C | 86% | 1008.5 hPa | 0 mm | - | 121 W/m² | - |
| 1777571378 | 12.78° C | 86% | 1008.6 hPa | 0 mm | - | 112 W/m² | - |
| 1777571073 | 12.78° C | 85% | 1008.6 hPa | 0 mm | - | 109 W/m² | - |
| 1777570769 | 13.33° C | 85% | 1008.6 hPa | 0 mm | - | 124 W/m² | - |
| 1777570466 | 13.33° C | 85% | 1008.7 hPa | 0 mm | - | 182 W/m² | - |
| 1777570162 | 13.89° C | 84% | 1008.4 hPa | 0 mm | - | 253 W/m² | - |
| 1777569858 | 13.33° C | 87% | 1008.8 hPa | 0 mm | - | 269 W/m² | - |
| 1777569554 | 13.89° C | 83% | 1008.8 hPa | 0 mm | - | 313 W/m² | - |
| 1777569251 | 13.33° C | 84% | 1008.7 hPa | 0 mm | - | 305 W/m² | - |
| 1777568947 | 13.89° C | 84% | 1008.6 hPa | 0 mm | - | 392 W/m² | - |
| 1777568643 | 12.78° C | 84% | 1008.7 hPa | 0 mm | - | 325 W/m² | - |
| 1777568341 | 12.78° C | 84% | 1008.8 hPa | 0 mm | - | 164 W/m² | - |
| 1777568037 | 13.33° C | 84% | 1008.9 hPa | 0 mm | - | 101 W/m² | - |
| 1777567734 | 13.89° C | 82% | 1008.9 hPa | 0 mm | - | 123 W/m² | - |
| 1777567431 | 13.89° C | 80% | 1008.8 hPa | 0 mm | - | 222 W/m² | - |
| 1777567129 | 14.44° C | 79% | 1008.7 hPa | 0 mm | - | 290 W/m² | - |
| 1777566826 | 13.89° C | 80% | 1008.7 hPa | 0 mm | - | 409 W/m² | - |
| 1777566524 | 13.89° C | 80% | 1008.8 hPa | 0 mm | - | 292 W/m² | - |
| 1777566222 | 14.44° C | 78% | 1008.8 hPa | 0 mm | - | 196 W/m² | - |
| 1777565918 | 14.44° C | 79% | 1008.9 hPa | 0 mm | - | 237 W/m² | - |
| 1777565613 | 14.44° C | 77% | 1008.8 hPa | 0 mm | - | 204 W/m² | - |
| 1777565311 | 15° C | 78% | 1008.7 hPa | 0 mm | - | 272 W/m² | - |
* Rain latest hour (hover to see other rain measurements)
** Current wind speed in m/s (hover to see current wind gust speed)